[[{"header":{"parameterUnit":"m.s-1","parameterCategory":2,"la1":30.2991,"la2":30.254,"lo1":-89.0895,"lo2":-89.0444,"dy":0.0017,"dx":0.0017,"nx":28,"ny":28,"refTime":"2024-06-12T09:00:00:Z","depth":"0","parameterNumber":2,"parameterNumberName":"U-component_of_CURRENTS"},"data":[0,0,0,0,0,0,0,0,0,0,0,0,0,0,0,0,0,0,0,0,0,0,0,0,0,0,0,0,0,0,0,0,0,0,0,0,0,0,0,0,0,0,0,0,0,0,0,0,0,0,0,0,0,0,0,0,0,0,0.2285,0.2285,0,0.2223,0.2222,0.2221,0.2179,0.2179,0.2179,0.2179,0.2062,0.2059,0.2055,0,0,0,0,0,0,0,0,0,0,0,0,0,0.2319,0.2319,0.2285,0.2285,0.2284,0.2223,0.2222,0.2221,0.2179,0.2179,0.2179,0.2179,0.2063,0.2059,0.2055,0,0,0,0,0,0,0,0,0,0,0,0,0,0.2281,0.2319,0.2285,0.226,0.2257,0.2224,0.2222,0.222,0.2179,0.2179,0.2179,0.2179,0.2064,0.2059,0.2054,0.202,0,0,0.2039,0.2037,0,0,0,0,0,0,0,0,0.2283,0.2279,0.2264,0.2262,0.2259,0.2213,0.2191,0.2152,0.2179,0.2203,0.2179,0.218,0.211,0.2102,0.2083,0.2014,0.2009,0.2039,0.2036,0.2034,0.2033,0,0,0,0,0,0,0,0.2286,0.2282,0.2256,0.2264,0.2261,0.2236,0.223,0.2183,0.2151,0.2201,0.2199,0.22,0.2108,0.2088,0.208,0.2007,0.2039,0.2035,0.2032,0.203,0.1996,0.1998,0,0,0,0,0,0,0.2306,0.2284,0.2258,0.2254,0.2277,0.2235,0.2229,0.2224,0.2153,0.2144,0.22,0.2199,0.2096,0.2086,0.2076,0.2099,0.2034,0.2029,0.2027,0.1994,0.1996,0.1999,0,0,0,0,0,0,0.2307,0.2304,0.226,0.2272,0.2266,0.2236,0.2229,0.2222,0.2217,0.2154,0.2143,0.2204,0.2096,0.2083,0.2061,0.2092,0.2027,0.2023,0.1992,0.1995,0.1998,0.2102,0,0,0,0,0,0,0.2308,0.2304,0.2307,0.2273,0.2266,0.2257,0.2229,0.2221,0.2219,0.2216,0.2153,0.2142,0.2095,0.2069,0.2056,0.2084,0.2019,0.1989,0.1993,0.1997,0.2096,0.2109,0.2119,0,0,0,0,0,0.2309,0.2309,0.2307,0.2304,0.227,0.2258,0.2251,0.2227,0.2219,0.2222,0.2189,0.2144,0.2085,0.2066,0.205,0.2078,0.1987,0.1992,0.1996,0.2091,0.2106,0.2119,0,0,0,0,0,0,0.2323,0.2305,0.2302,0.2296,0.229,0.2253,0.2251,0.224,0.2214,0.2212,0.2154,0.2141,0.2136,0.2096,0.2077,0.2084,0.2035,0.2036,0.2112,0.2125,0.2137,0.2158,0.2015,0,0,0,0,0,0.2331,0.233,0.2312,0.2313,0.231,0.2285,0.2278,0.2267,0.2242,0.2231,0.2193,0.2161,0.214,0.2126,0.2092,0.2085,0.2109,0.21,0.2111,0.2121,0.2131,0.2211,0.2232,0.2014,0.2014,0.2014,0,0,0.2338,0.233,0.2329,0.2318,0.2305,0.2316,0.228,0.2278,0.2285,0.222,0.2216,0.2191,0.2148,0.2147,0.2142,0.2118,0.2202,0.2127,0.2135,0.214,0.2219,0.224,0.2259,0.2017,0.2016,0.2016,0,0,0.2362,0.2345,0.2358,0.2359,0.2356,0.2341,0.235,0.2328,0.2313,0.2309,0.2277,0.2284,0.223,0.2224,0.221,0.2266,0.2259,0.2255,0.2326,0.2404,0.2423,0.244,0.2528,0.2551,0.2263,0.2263,0.2263,0,0.2371,0.2384,0.2361,0.2383,0.2388,0.2362,0.2384,0.2366,0.2345,0.2348,0.2323,0.2316,0.2274,0.2301,0.232,0.2292,0.2339,0.2274,0.2421,0.2438,0.2453,0.2539,0.2564,0.2268,0.2268,0.2267,0.2267,0,0.2411,0.2425,0.2433,0.2452,0.2457,0.2466,0.2452,0.2455,0.244,0.2435,0.2455,0.2419,0.2427,0.2418,0.2376,0.2465,0.2466,0.2427,0.2389,0.2482,0.2566,0.259,0.2276,0.2274,0.2273,0.2271,0,0,0.2396,0.245,0.245,0.2473,0.2491,0.2491,0.2516,0.2527,0.2546,0.2545,0.2585,0.2569,0.2572,0.2559,0.2529,0.2584,0.2732,0.2555,0.2557,0.2648,0.2931,0.2913,0.2937,0.2724,0.2729,0.2732,0.2957,0,0.2425,0.2488,0.2501,0.2548,0.257,0.257,0.259,0.2605,0.2605,0.2635,0.2639,0.2654,0.2618,0.2625,0.2688,0.2694,0.2796,0.2676,0.2822,0.2827,0.2803,0.2964,0.282,0.3007,0.298,0.2984,0.2987,0,0.2434,0.2481,0.2539,0.2591,0.2598,0.2623,0.2653,0.2668,0.2712,0.2714,0.277,0.277,0.2843,0.2794,0.2936,0.2863,0.2927,0.2948,0.2956,0.2915,0.2852,0.2903,0.3051,0.2943,0.3024,0.3021,0.3018,0,0.2406,0.2486,0.2532,0.2551,0.2615,0.2635,0.2661,0.27,0.2701,0.2775,0.28,0.2895,0.2916,0.3028,0.3065,0.3025,0.3222,0.3171,0.324,0.3239,0.3132,0.3115,0.3192,0.3335,0.3335,0.3334,0.3333,0,0.2402,0.2422,0.2525,0.2542,0.2578,0.2635,0.2661,0.269,0.2747,0.2769,0.2842,0.288,0.2974,0.3074,0.3142,0.3269,0.3307,0.3303,0.3313,0.3167,0.3151,0.3059,0.3018,0.3342,0.3341,0.3339,0.3337,0,0.2323,0.2399,0.2436,0.2531,0.2555,0.2571,0.2628,0.2651,0.2716,0.2755,0.2784,0.2888,0.3027,0.3137,0.3298,0.3344,0.3384,0.3512,0.3337,0.3323,0.3275,0.3246,0.3258,0.3166,0.3659,0.366,0.3661,0,0.2283,0.2307,0.2396,0.2416,0.2448,0.2495,0.252,0.2603,0.263,0.2748,0.2766,0.292,0.3004,0.3251,0.3369,0.3556,0.3432,0.3532,0.3431,0.3303,0.3279,0.313,0.3038,0.335,0.3348,0.3347,0.3346,0,0.2193,0.2221,0.2258,0.2312,0.2346,0.2381,0.2439,0.2457,0.256,0.2618,0.271,0.28,0.3038,0.3151,0.3385,0.3472,0.3343,0.3512,0.3422,0.3104,0.2905,0.2807,0.3177,0.3334,0.3335,0.3336,0.3336,0.3337,0.2093,0.2097,0.2156,0.2192,0.2226,0.2253,0.2255,0.2336,0.2382,0.2462,0.2608,0.2714,0.292,0.3225,0.3293,0.3313,0.3309,0.3247,0.325,0.313,0.2949,0.3308,0.3434,0.3436,0.3437,0.3439,0.344,0,0.1976,0.201,0.2041,0.2077,0.2075,0.2138,0.2182,0.2178,0.221,0.2349,0.2441,0.2639,0.2772,0.2938,0.3097,0.3056,0.289,0.2974,0.2709,0.2654,0.3022,0.291,0.2873,0.2873,0.2873,0.2873,0.2873,0.2874,0.1909,0.1912,0.1952,0.1927,0.1948,0.192,0.1928,0.1944,0.2018,0.2119,0.2234,0.2385,0.2641,0.2832,0.2845,0.2791,0.2582,0.2478,0.2483,0.2711,0.2734,0.2755,0.2638,0.2544,0.2544,0.1947,0.1943,0.194]},{"header":{"parameterUnit":"m.s-1","parameterCategory":2,"la1":30.2991,"la2":30.254,"lo1":-89.0895,"lo2":-89.0444,"dy":0.0017,"dx":0.0017,"nx":28,"ny":28,"refTime":"2024-06-12T09:00:00:Z","depth":"0","parameterNumber":3,"parameterNumberName":"V-component_of_CURRENTS"},"data":[0,0,0,0,0,0,0,0,0,0,0,0,0,0,0,0,0,0,0,0,0,0,0,0,0,0,0,0,0,0,0,0,0,0,0,0,0,0,0,0,0,0,0,0,0,0,0,0,0,0,0,0,0,0,0,0,0,0,-0.0364,-0.0364,0,-0.0505,-0.0507,-0.051,-0.0643,-0.0644,-0.0644,-0.0645,-0.0987,-0.0996,-0.1004,0,0,0,0,0,0,0,0,0,0,0,0,0,-0.0471,-0.0468,-0.0364,-0.0364,-0.0365,-0.0504,-0.0507,-0.0511,-0.0643,-0.0644,-0.0645,-0.0645,-0.0984,-0.0995,-0.1005,0,0,0,0,0,0,0,0,0,0,0,0,0,-0.0511,-0.0467,-0.0364,-0.0439,-0.0446,-0.0504,-0.0508,-0.0511,-0.0643,-0.0644,-0.0645,-0.0645,-0.0981,-0.0994,-0.1006,-0.1071,0,0,-0.1046,-0.1052,0,0,0,0,0,0,0,0,-0.0508,-0.0508,-0.0427,-0.0433,-0.0441,-0.0546,-0.067,-0.0704,-0.0643,-0.0582,-0.0645,-0.0646,-0.085,-0.0873,-0.0913,-0.1087,-0.1102,-0.1047,-0.1055,-0.1061,-0.1064,0,0,0,0,0,0,0,-0.0505,-0.0504,-0.0433,-0.0427,-0.0436,-0.0554,-0.056,-0.0679,-0.0723,-0.0587,-0.0594,-0.0589,-0.0857,-0.09,-0.0923,-0.1107,-0.1047,-0.1058,-0.1066,-0.1071,-0.131,-0.1308,0,0,0,0,0,0,-0.0446,-0.0499,-0.0428,-0.0435,-0.0463,-0.0549,-0.0556,-0.0522,-0.0718,-0.0743,-0.0588,-0.0594,-0.0878,-0.0907,-0.0935,-0.099,-0.106,-0.1073,-0.108,-0.1311,-0.1309,-0.1308,0,0,0,0,0,0,-0.0448,-0.0437,-0.0422,-0.0464,-0.0468,-0.0543,-0.0506,-0.0524,-0.0561,-0.0714,-0.0746,-0.0604,-0.088,-0.0917,-0.1027,-0.1006,-0.1078,-0.109,-0.1313,-0.1311,-0.1309,-0.1122,0,0,0,0,0,0,-0.045,-0.0437,-0.0411,-0.0457,-0.0463,-0.0444,-0.0505,-0.0526,-0.0551,-0.0561,-0.0738,-0.0771,-0.0883,-0.1006,-0.104,-0.1025,-0.11,-0.1315,-0.1312,-0.1309,-0.113,-0.1114,-0.11,0,0,0,0,0,-0.0453,-0.0406,-0.0408,-0.04,-0.0417,-0.0442,-0.0458,-0.0526,-0.055,-0.0564,-0.0674,-0.0765,-0.1012,-0.1016,-0.1056,-0.1044,-0.1316,-0.1313,-0.131,-0.1137,-0.1117,-0.11,0,0,0,0,0,0,-0.0452,-0.0415,-0.0419,-0.0366,-0.0392,-0.046,-0.0472,-0.0509,-0.0606,-0.0618,-0.0768,-0.0808,-0.0892,-0.099,-0.0991,-0.11,-0.1172,-0.1176,-0.1027,-0.101,-0.0995,-0.0941,-0.1111,0,0,0,0,0,-0.0427,-0.0381,-0.0383,-0.0348,-0.0346,-0.0404,-0.0426,-0.0461,-0.0537,-0.058,-0.0696,-0.0813,-0.091,-0.0975,-0.1083,-0.1158,-0.1191,-0.1168,-0.1153,-0.1139,-0.112,-0.1144,-0.1128,-0.1297,-0.1297,-0.1297,0,0,-0.0421,-0.0392,-0.0371,-0.0345,-0.0372,-0.0369,-0.0423,-0.0434,-0.0444,-0.0605,-0.0672,-0.0774,-0.0916,-0.0991,-0.1036,-0.1073,-0.11,-0.1135,-0.1123,-0.111,-0.1138,-0.1122,-0.1107,-0.1295,-0.1295,-0.1296,0,0,-0.0391,-0.0349,-0.0309,-0.0313,-0.0314,-0.0341,-0.0329,-0.038,-0.0413,-0.0476,-0.058,-0.0656,-0.0825,-0.0905,-0.097,-0.0937,-0.1017,-0.0972,-0.0864,-0.0886,-0.0872,-0.086,-0.0835,-0.0822,-0.0966,-0.0965,-0.0965,0,-0.0388,-0.0324,-0.0313,-0.0284,-0.0277,-0.0313,-0.0291,-0.0325,-0.0412,-0.0427,-0.0474,-0.0656,-0.0777,-0.0844,-0.0827,-0.0902,-0.091,-0.0921,-0.0863,-0.0852,-0.0843,-0.0822,-0.081,-0.0956,-0.0957,-0.0958,-0.0959,0,-0.0337,-0.0293,-0.027,-0.0229,-0.0227,-0.0211,-0.0225,-0.0238,-0.0271,-0.0312,-0.0371,-0.0511,-0.0614,-0.0654,-0.0739,-0.0733,-0.0754,-0.0835,-0.0899,-0.0814,-0.0797,-0.0788,-0.0943,-0.0946,-0.0949,-0.0951,0,0,-0.0301,-0.0243,-0.0236,-0.0207,-0.0188,-0.0178,-0.0162,-0.0161,-0.0146,-0.022,-0.0213,-0.035,-0.04,-0.0473,-0.0576,-0.0593,-0.0528,-0.0668,-0.0674,-0.0624,-0.0528,-0.0521,-0.0512,-0.0595,-0.0593,-0.0592,-0.0524,0,-0.0268,-0.0203,-0.0181,-0.0129,-0.0092,-0.0094,-0.0076,-0.0078,-0.0101,-0.0109,-0.019,-0.0245,-0.0338,-0.0379,-0.0401,-0.0517,-0.0503,-0.0536,-0.0636,-0.0637,-0.0628,-0.0502,-0.0504,-0.0443,-0.0516,-0.0515,-0.0514,0,-0.0217,-0.0177,-0.0119,-0.0053,-0.0035,-0.0014,0.0033,0.0043,0.0039,0.0022,-0.0011,-0.0086,-0.0124,-0.0217,-0.0298,-0.0312,-0.0383,-0.0456,-0.0457,-0.0513,-0.0616,-0.0553,-0.0426,-0.0589,-0.0502,-0.0503,-0.0504,0,-0.0187,-0.0123,-0.0073,-0.0054,0.0003,0.0036,0.0063,0.0078,0.01,0.0107,0.0118,0.006,0.0021,-0.0061,-0.0195,-0.0243,-0.0265,-0.037,-0.0413,-0.0413,-0.0466,-0.0473,-0.0496,-0.0389,-0.0389,-0.0389,-0.0389,0,-0.0139,-0.0092,-0.0055,-0.0022,0.0045,0.0076,0.0139,0.0161,0.0192,0.0237,0.0185,0.0204,0.0058,0.0013,-0.0109,-0.0202,-0.0196,-0.0345,-0.0387,-0.0397,-0.0398,-0.059,-0.0689,-0.0387,-0.0387,-0.0388,-0.0388,0,-0.01,-0.0078,-0.0013,0.0044,0.0065,0.0114,0.0185,0.0228,0.026,0.0322,0.0333,0.0319,0.0282,0.0157,0.0027,-0.0095,-0.0273,-0.0235,-0.0204,-0.0243,-0.0455,-0.0542,-0.058,-0.0651,-0.0259,-0.0259,-0.0258,0,-0.0069,-0.0037,0.0023,0.0057,0.0088,0.0152,0.02,0.0251,0.0301,0.0394,0.0432,0.0435,0.0458,0.0314,0.0111,-0.0036,-0.0218,-0.0165,-0.0274,-0.0413,-0.0544,-0.0605,-0.0668,-0.0252,-0.0252,-0.0251,-0.0251,0,-0.0016,-0.0005,0.0039,0.0099,0.0153,0.0218,0.0293,0.0346,0.0428,0.0507,0.0615,0.0656,0.0543,0.0415,0.0212,0.0063,-0.0274,-0.0161,-0.0333,-0.0532,-0.0575,-0.0682,-0.0324,-0.0247,-0.0247,-0.0247,-0.0247,-0.0248,0.0014,0.0044,0.0087,0.0151,0.0209,0.0295,0.0376,0.0468,0.0592,0.076,0.0765,0.0888,0.0651,0.0385,0.0176,-0.0237,-0.0244,-0.0391,-0.0475,-0.0515,-0.0613,-0.0207,-0.0177,-0.0177,-0.0177,-0.0177,-0.0177,0,0.0051,0.0082,0.0139,0.0222,0.0298,0.0322,0.0448,0.0555,0.0734,0.0893,0.1017,0.0991,0.0692,0.0341,-0.0189,-0.0494,-0.0639,-0.0676,-0.0794,-0.084,-0.05,-0.0535,-0.055,-0.055,-0.055,-0.055,-0.055,-0.0549,0.0076,0.0129,0.0158,0.0288,0.0353,0.0486,0.0574,0.074,0.0886,0.1118,0.1234,0.1294,0.1011,0.0037,-0.0671,-0.0854,-0.1085,-0.1101,-0.1223,-0.1044,-0.1026,-0.1008,-0.1065,-0.119,-0.1191,-0.1538,-0.1542,-0.1545]}],[{"header":{"parameterUnit":"m.s-1","parameterCategory":2,"la1":30.2991,"la2":30.254,"lo1":-89.0895,"lo2":-89.0444,"dy":0.0017,"dx":0.0017,"nx":28,"ny":28,"refTime":"2024-06-12T09:00:00:Z","depth":"2","parameterNumber":2,"parameterNumberName":"U-component_of_CURRENTS"},"data":[0,0,0,0,0,0,0,0,0,0,0,0,0,0,0,0,0,0,0,0,0,0,0,0,0,0,0,0,0,0,0,0,0,0,0,0,0,0,0,0,0,0,0,0,0,0,0,0,0,0,0,0,0,0,0,0,0,0,0.2022,0.2023,0,0.2089,0.2089,0.2089,0.2114,0.2115,0.2115,0.2116,0.2072,0.2071,0.2069,0,0,0,0,0,0,0,0,0,0,0,0,0,0.1981,0.198,0.2022,0.2023,0.2024,0.2089,0.2089,0.2089,0.2114,0.2115,0.2115,0.2116,0.2073,0.2071,0.2069,0,0,0,0,0,0,0,0,0,0,0,0,0,0.2011,0.198,0.2021,0.205,0.2054,0.2089,0.2089,0.2089,0.2114,0.2115,0.2115,0.2116,0.2073,0.2071,0.2069,0.2042,0,0,0.2062,0.2061,0,0,0,0,0,0,0,0,0.2009,0.2012,0.2044,0.2048,0.2052,0.21,0.2059,0.207,0.2114,0.2084,0.2116,0.2116,0.2075,0.2073,0.2076,0.204,0.2038,0.2062,0.206,0.2059,0.2059,0,0,0,0,0,0,0,0.2007,0.201,0.2041,0.2046,0.2051,0.2082,0.2086,0.2062,0.2068,0.2087,0.209,0.2108,0.2076,0.2078,0.2075,0.2037,0.2062,0.206,0.2058,0.2057,0.2076,0.2077,0,0,0,0,0,0,0.2008,0.2007,0.2039,0.2044,0.204,0.2083,0.2086,0.2078,0.2071,0.2073,0.2108,0.211,0.2082,0.2078,0.2073,0.2128,0.2059,0.2057,0.2056,0.2074,0.2076,0.2078,0,0,0,0,0,0,0.2007,0.2009,0.2037,0.2034,0.2041,0.2083,0.2073,0.2079,0.2098,0.2089,0.2088,0.2123,0.2082,0.2077,0.2095,0.2123,0.2056,0.2054,0.2072,0.2074,0.2077,0.218,0,0,0,0,0,0,0.2005,0.2007,0.2012,0.2033,0.2041,0.2084,0.2074,0.2081,0.2111,0.2114,0.2101,0.2098,0.2082,0.2099,0.2092,0.2118,0.2052,0.2069,0.2073,0.2076,0.2174,0.2186,0.2196,0,0,0,0,0,0.2002,0.201,0.2011,0.2017,0.2041,0.2086,0.2093,0.2121,0.2111,0.2135,0.2136,0.2099,0.2116,0.2098,0.2091,0.2116,0.2067,0.2072,0.2076,0.2169,0.2184,0.2196,0,0,0,0,0,0,0.201,0.2014,0.2016,0.2028,0.2067,0.2094,0.212,0.2127,0.2144,0.2145,0.212,0.2118,0.2145,0.2117,0.2098,0.2134,0.2085,0.2088,0.2159,0.2172,0.2183,0.2197,0.205,0,0,0,0,0,0.2008,0.2001,0.2033,0.2045,0.2064,0.2088,0.2111,0.2131,0.2148,0.2157,0.216,0.2154,0.2152,0.2153,0.215,0.2162,0.218,0.2175,0.2186,0.2195,0.2204,0.2286,0.2306,0.2092,0.2092,0.2092,0,0,0.2017,0.2018,0.2018,0.2046,0.2069,0.2128,0.2102,0.2146,0.2185,0.2145,0.2199,0.2191,0.2165,0.2196,0.2204,0.2178,0.2267,0.2201,0.2209,0.2212,0.2292,0.2313,0.2332,0.2095,0.2094,0.2094,0,0,0.2049,0.2029,0.2052,0.2087,0.2135,0.2157,0.2173,0.2218,0.2225,0.2271,0.2256,0.2279,0.2273,0.2281,0.2272,0.2336,0.2324,0.2325,0.2389,0.2469,0.2488,0.2504,0.2564,0.2585,0.2329,0.233,0.233,0,0.2081,0.2095,0.2075,0.2127,0.2169,0.2175,0.2244,0.2253,0.2304,0.2315,0.2305,0.2343,0.2318,0.2355,0.2379,0.2361,0.24,0.234,0.2486,0.2502,0.2518,0.2575,0.2597,0.2335,0.2335,0.2334,0.2333,0,0.215,0.2169,0.219,0.2247,0.2287,0.2343,0.2369,0.2399,0.2405,0.2426,0.2468,0.2459,0.2485,0.2477,0.2439,0.2527,0.2518,0.2494,0.2456,0.2546,0.26,0.2621,0.2343,0.2341,0.2339,0.2338,0,0,0.2214,0.2237,0.2255,0.2276,0.2354,0.2388,0.2447,0.2502,0.2526,0.257,0.2617,0.2625,0.2624,0.2615,0.2587,0.2641,0.2772,0.2614,0.2616,0.2679,0.2954,0.2758,0.2761,0.2784,0.2788,0.2792,0.2952,0,0.2294,0.238,0.2384,0.2474,0.2514,0.2531,0.2576,0.2616,0.2634,0.2678,0.2674,0.2707,0.2672,0.268,0.2741,0.2748,0.2831,0.273,0.2851,0.2855,0.2674,0.278,0.2571,0.268,0.2973,0.2976,0.2979,0,0.2368,0.2411,0.2502,0.2533,0.2557,0.2614,0.2672,0.2713,0.2757,0.2761,0.2817,0.2818,0.2886,0.2841,0.2969,0.2911,0.2954,0.297,0.2977,0.2769,0.2696,0.2635,0.2706,0.3013,0.3011,0.3008,0.3006,0,0.2379,0.2479,0.2537,0.2566,0.2627,0.2654,0.2697,0.2745,0.2748,0.2824,0.2842,0.294,0.2956,0.306,0.3072,0.3051,0.3202,0.318,0.3063,0.305,0.2879,0.2841,0.3319,0.3319,0.3319,0.3318,0.3318,0,0.2424,0.2458,0.2538,0.2562,0.2609,0.2666,0.2702,0.2736,0.2791,0.2798,0.2882,0.289,0.3013,0.3085,0.3137,0.3141,0.3273,0.3096,0.3086,0.2904,0.2869,0.3149,0.3127,0.3324,0.3323,0.3322,0.3321,0,0.236,0.2433,0.2464,0.2558,0.2586,0.2605,0.266,0.2676,0.2749,0.2768,0.2796,0.2879,0.2954,0.3061,0.3195,0.3172,0.323,0.3209,0.2963,0.2917,0.3024,0.3006,0.313,0.3124,0.312,0.3116,0.3113,0,0.2319,0.234,0.2422,0.2432,0.2458,0.2508,0.2526,0.262,0.2632,0.2724,0.2716,0.2815,0.2815,0.2928,0.2945,0.3031,0.3131,0.286,0.2762,0.3031,0.301,0.2999,0.2987,0.261,0.2603,0.2597,0.2592,0,0.2223,0.2247,0.2273,0.2301,0.2326,0.2354,0.2401,0.2403,0.2506,0.2529,0.2545,0.2572,0.2646,0.2584,0.2659,0.2679,0.2823,0.2735,0.3143,0.2637,0.2538,0.2517,0.2525,0.2541,0.2546,0.255,0.2552,0.2555,0.2118,0.2105,0.2142,0.2155,0.2181,0.2188,0.2177,0.2214,0.2216,0.2228,0.232,0.2296,0.2349,0.2307,0.2286,0.2295,0.2473,0.2419,0.244,0.2467,0.2325,0.2217,0.2135,0.2138,0.214,0.2142,0.2144,0,0.1997,0.201,0.2002,0.2014,0.1993,0.2074,0.2081,0.2041,0.1996,0.2021,0.2017,0.1872,0.1836,0.1926,0.185,0.1853,0.1881,0.1801,0.1843,0.1894,0.194,0.1774,0.1437,0.1435,0.1433,0.1431,0,0,0.1928,0.1898,0.1908,0.1847,0.1868,0.1835,0.1834,0.1758,0.1739,0.1627,0.1605,0.1721,0.1833,0.1594,0.1582,0.1498,0.1684,0.1446,0.2014,0.2113,0.2155,0.2298,0.2097,0,0,0,0,0]},{"header":{"parameterUnit":"m.s-1","parameterCategory":2,"la1":30.2991,"la2":30.254,"lo1":-89.0895,"lo2":-89.0444,"dy":0.0017,"dx":0.0017,"nx":28,"ny":28,"refTime":"2024-06-12T09:00:00:Z","depth":"2","parameterNumber":3,"parameterNumberName":"V-component_of_CURRENTS"},"data":[0,0,0,0,0,0,0,0,0,0,0,0,0,0,0,0,0,0,0,0,0,0,0,0,0,0,0,0,0,0,0,0,0,0,0,0,0,0,0,0,0,0,0,0,0,0,0,0,0,0,0,0,0,0,0,0,0,0,-0.0025,-0.0025,0,-0.0141,-0.0144,-0.0146,-0.0263,-0.0263,-0.0264,-0.0264,-0.0658,-0.0668,-0.0678,0,0,0,0,0,0,0,0,0,0,0,0,0,-0.0096,-0.0094,-0.0025,-0.0025,-0.0026,-0.0141,-0.0144,-0.0146,-0.0263,-0.0263,-0.0264,-0.0264,-0.0655,-0.0667,-0.0679,0,0,0,0,0,0,0,0,0,0,0,0,0,-0.0135,-0.0094,-0.0025,-0.0088,-0.0094,-0.014,-0.0144,-0.0147,-0.0263,-0.0263,-0.0264,-0.0265,-0.0651,-0.0666,-0.068,-0.0761,0,0,-0.0727,-0.0733,0,0,0,0,0,0,0,0,-0.0133,-0.0134,-0.0079,-0.0084,-0.0091,-0.0177,-0.0313,-0.0362,-0.0263,-0.0212,-0.0264,-0.0265,-0.0515,-0.0541,-0.0575,-0.0779,-0.0796,-0.0728,-0.0737,-0.0744,-0.0748,0,0,0,0,0,0,0,-0.013,-0.0131,-0.0084,-0.0079,-0.0086,-0.0176,-0.0182,-0.0323,-0.0373,-0.0216,-0.0222,-0.0215,-0.0522,-0.056,-0.0586,-0.0802,-0.0728,-0.0741,-0.075,-0.0756,-0.1096,-0.1096,0,0,0,0,0,0,-0.0079,-0.0127,-0.008,-0.0086,-0.01,-0.0173,-0.018,-0.0159,-0.0366,-0.0392,-0.0214,-0.022,-0.0534,-0.0568,-0.06,-0.0707,-0.0744,-0.0758,-0.0767,-0.1096,-0.1096,-0.1096,0,0,0,0,0,0,-0.008,-0.0073,-0.0075,-0.0101,-0.0106,-0.0168,-0.0145,-0.0161,-0.0197,-0.0358,-0.0393,-0.0232,-0.0536,-0.0579,-0.075,-0.0724,-0.0765,-0.0778,-0.1096,-0.1096,-0.1096,-0.0923,0,0,0,0,0,0,-0.0081,-0.0073,-0.0064,-0.0096,-0.0101,-0.0102,-0.0144,-0.0162,-0.0185,-0.0194,-0.0386,-0.0423,-0.0539,-0.0726,-0.0765,-0.0745,-0.079,-0.1096,-0.1096,-0.1096,-0.0929,-0.0917,-0.0907,0,0,0,0,0,-0.0083,-0.0066,-0.0063,-0.0058,-0.0079,-0.0101,-0.0115,-0.0171,-0.0185,-0.0206,-0.0348,-0.0417,-0.075,-0.0741,-0.0785,-0.0769,-0.1096,-0.1096,-0.1096,-0.0933,-0.0919,-0.0907,0,0,0,0,0,0,-0.0115,-0.0076,-0.0074,-0.0051,-0.0068,-0.0116,-0.0136,-0.0159,-0.028,-0.03,-0.0454,-0.0503,-0.0628,-0.0733,-0.0717,-0.0864,-0.092,-0.0929,-0.0781,-0.0769,-0.0758,-0.0692,-0.0803,0,0,0,0,0,-0.0103,-0.0069,-0.0064,-0.0049,-0.0047,-0.0085,-0.0105,-0.0133,-0.0222,-0.0272,-0.041,-0.0548,-0.0661,-0.0743,-0.0874,-0.0982,-0.1014,-0.099,-0.0978,-0.0968,-0.0944,-0.0973,-0.096,-0.1096,-0.1096,-0.1096,0,0,-0.0112,-0.0084,-0.0069,-0.0052,-0.0069,-0.0078,-0.0103,-0.0118,-0.0139,-0.0303,-0.0418,-0.0531,-0.0683,-0.0793,-0.0854,-0.0881,-0.0944,-0.0968,-0.0958,-0.0939,-0.0971,-0.0957,-0.0945,-0.1096,-0.1096,-0.1096,0,0,-0.0108,-0.008,-0.0053,-0.0055,-0.005,-0.0075,-0.0066,-0.0118,-0.0153,-0.0258,-0.0361,-0.0459,-0.0667,-0.0748,-0.0814,-0.0826,-0.0884,-0.0858,-0.0759,-0.0786,-0.0774,-0.0763,-0.0758,-0.0749,-0.0853,-0.0852,-0.0852,0,-0.013,-0.008,-0.006,-0.0041,-0.0038,-0.0062,-0.0055,-0.0093,-0.0206,-0.0225,-0.028,-0.0498,-0.0631,-0.0709,-0.0706,-0.0795,-0.081,-0.0791,-0.0765,-0.0756,-0.0749,-0.0747,-0.0739,-0.0844,-0.0845,-0.0846,-0.0847,0,-0.0108,-0.0075,-0.0062,-0.0033,-0.0037,-0.0035,-0.005,-0.0082,-0.0121,-0.0158,-0.024,-0.0403,-0.0516,-0.0557,-0.0644,-0.0646,-0.0671,-0.0741,-0.0782,-0.0723,-0.0727,-0.0721,-0.0832,-0.0835,-0.0837,-0.084,0,0,-0.013,-0.006,-0.0058,-0.0024,-0.0024,-0.0016,-0.0029,-0.0037,-0.0023,-0.0124,-0.0123,-0.0279,-0.0323,-0.0397,-0.0497,-0.0518,-0.0475,-0.0589,-0.0594,-0.0551,-0.0498,-0.0519,-0.0515,-0.0533,-0.0532,-0.0531,-0.0511,0,-0.0126,-0.0074,-0.0048,-0.0015,0.0017,0.0016,0.0015,0.0008,-0.0021,-0.0043,-0.0117,-0.0184,-0.0271,-0.0312,-0.0339,-0.0459,-0.0457,-0.0472,-0.059,-0.0593,-0.0592,-0.0509,-0.0487,-0.0467,-0.0506,-0.0505,-0.0504,0,-0.0105,-0.0067,-0.0025,0.0049,0.0062,0.0067,0.0104,0.01,0.0091,0.0074,0.0038,-0.0034,-0.0083,-0.0167,-0.0267,-0.0269,-0.0351,-0.0427,-0.043,-0.0503,-0.0603,-0.0543,-0.0457,-0.0496,-0.0497,-0.0497,-0.0498,0,-0.0092,-0.0039,0.0003,0.002,0.0075,0.0104,0.0122,0.0134,0.0156,0.0154,0.0167,0.0096,0.0056,-0.004,-0.0184,-0.0223,-0.0277,-0.0371,-0.0451,-0.0454,-0.0485,-0.0492,-0.0407,-0.0407,-0.0407,-0.0407,-0.0407,0,-0.0067,-0.0024,0.0018,0.005,0.0111,0.0141,0.0198,0.0218,0.0243,0.0287,0.0231,0.0248,0.0088,0.0028,-0.011,-0.0238,-0.0219,-0.0395,-0.0442,-0.0425,-0.0426,-0.0512,-0.0525,-0.0406,-0.0406,-0.0407,-0.0407,0,-0.0027,-0.0008,0.006,0.0114,0.0133,0.0183,0.0252,0.0298,0.0321,0.038,0.0388,0.0366,0.0297,0.015,-0.0008,-0.0144,-0.0275,-0.0327,-0.0273,-0.0314,-0.0449,-0.0453,-0.0412,-0.0412,-0.0412,-0.0413,-0.0413,0,0.0007,0.004,0.0103,0.0143,0.0176,0.0239,0.0289,0.033,0.0385,0.0455,0.0497,0.0464,0.0452,0.0249,0.0016,-0.0185,-0.0236,-0.0306,-0.0396,-0.0395,-0.0445,-0.0449,-0.0453,-0.0358,-0.0358,-0.0358,-0.0358,0,0.0071,0.0084,0.0136,0.0207,0.0265,0.0334,0.0412,0.0469,0.0532,0.0607,0.0701,0.0701,0.0505,0.0314,0.0035,-0.0115,-0.0276,-0.0311,-0.0309,-0.0371,-0.0346,-0.0396,-0.0401,-0.0356,-0.0356,-0.0356,-0.0356,-0.0357,0.0111,0.0152,0.0207,0.0283,0.0348,0.0441,0.0521,0.0615,0.0737,0.0846,0.0825,0.0828,0.059,0.0232,0.0003,-0.0251,-0.0274,-0.0382,-0.0382,-0.0382,-0.0389,-0.0368,-0.038,-0.0381,-0.0381,-0.0381,-0.0381,0,0.0155,0.0198,0.0279,0.0374,0.046,0.0474,0.0613,0.0707,0.0877,0.0925,0.0982,0.0776,0.0553,0.0289,-0.0093,-0.033,-0.0351,-0.0391,-0.0373,-0.0373,-0.0373,-0.038,-0.0369,-0.037,-0.037,-0.0371,0,0,0.0184,0.0256,0.0302,0.0452,0.0515,0.0649,0.0735,0.0881,0.0964,0.1042,0.1021,0.0921,0.0613,0.0343,0.0042,-0.0163,-0.0216,-0.0202,-0.0189,-0.0132,-0.0129,-0.0348,-0.0357,0,0,0,0,0]}],[{"header":{"parameterUnit":"m.s-1","parameterCategory":2,"la1":30.2991,"la2":30.254,"lo1":-89.0895,"lo2":-89.0444,"dy":0.0017,"dx":0.0017,"nx":28,"ny":28,"refTime":"2024-06-12T09:00:00:Z","depth":"4","parameterNumber":2,"parameterNumberName":"U-component_of_CURRENTS"},"data":[0,0,0,0,0,0,0,0,0,0,0,0,0,0,0,0,0,0,0,0,0,0,0,0,0,0,0,0,0,0,0,0,0,0,0,0,0,0,0,0,0,0,0,0,0,0,0,0,0,0,0,0,0,0,0,0,0,0,0.0887,0.0886,0,0.0893,0.0894,0.0896,0.096,0.096,0.096,0.0961,0.0996,0.0996,0.0997,0,0,0,0,0,0,0,0,0,0,0,0,0,0.0905,0.0906,0.0887,0.0886,0.0885,0.0893,0.0894,0.0896,0.096,0.096,0.0961,0.0961,0.0995,0.0996,0.0997,0,0,0,0,0,0,0,0,0,0,0,0,0,0.0917,0.0906,0.0888,0.0907,0.0907,0.0893,0.0895,0.0896,0.096,0.096,0.0961,0.0961,0.0995,0.0996,0.0997,0.0996,0,0,0.1,0.1001,0,0,0,0,0,0,0,0,0.0916,0.0918,0.0905,0.0905,0.0906,0.0913,0.0913,0.0926,0.096,0.0956,0.0961,0.0961,0.0961,0.0965,0.0986,0.0997,0.0999,0.1,0.1001,0.1002,0.1002,0,0,0,0,0,0,0,0.0915,0.0918,0.0905,0.0903,0.0904,0.0905,0.0909,0.0916,0.0968,0.0956,0.0957,0.0934,0.0963,0.0985,0.0987,0.0999,0.1,0.1001,0.1002,0.1002,0.1046,0.1046,0,0,0,0,0,0,0.0886,0.0917,0.0904,0.0903,0.0895,0.0903,0.0908,0.0923,0.0967,0.097,0.0934,0.0937,0.0983,0.0985,0.0988,0.1106,0.1001,0.1002,0.1003,0.1045,0.1046,0.1046,0,0,0,0,0,0,0.0887,0.0886,0.0904,0.0896,0.0897,0.0901,0.0917,0.0922,0.0974,0.0947,0.0954,0.0982,0.0983,0.0987,0.1006,0.1103,0.1003,0.1004,0.1045,0.1045,0.1046,0.1267,0,0,0,0,0,0,0.0888,0.0888,0.0907,0.0895,0.0895,0.0902,0.0915,0.0921,0.095,0.0956,0.099,0.0992,0.0984,0.1004,0.1007,0.1103,0.1005,0.1044,0.1045,0.1046,0.1259,0.1275,0.1289,0,0,0,0,0,0.089,0.09,0.0909,0.0906,0.0917,0.09,0.0903,0.0916,0.0952,0.0971,0.0991,0.0993,0.1012,0.1005,0.1008,0.1108,0.1043,0.1045,0.1046,0.1252,0.1272,0.1288,0,0,0,0,0,0,0.0916,0.0906,0.0915,0.0925,0.0915,0.0906,0.0919,0.0938,0.0976,0.0988,0.0999,0.1001,0.1058,0.1023,0.1015,0.1109,0.1029,0.1031,0.1184,0.1203,0.1217,0.1179,0.1006,0,0,0,0,0,0.0926,0.0946,0.092,0.0935,0.093,0.0941,0.0944,0.0947,0.0958,0.098,0.1,0.1018,0.106,0.1082,0.1081,0.1135,0.1075,0.119,0.1206,0.122,0.1182,0.1182,0.1195,0.105,0.105,0.105,0,0,0.093,0.0935,0.094,0.0942,0.0948,0.0928,0.0951,0.0951,0.0984,0.0973,0.1042,0.1068,0.1077,0.1144,0.1167,0.1136,0.1232,0.1221,0.1234,0.1188,0.1185,0.1199,0.1212,0.1051,0.1051,0.1051,0,0,0.0931,0.0965,0.0968,0.0962,0.0949,0.0943,0.095,0.0954,0.1019,0.1033,0.1086,0.1136,0.1157,0.1219,0.1247,0.1325,0.1306,0.1363,0.1435,0.1439,0.1452,0.1462,0.1434,0.144,0.1383,0.1384,0.1384,0,0.0929,0.0938,0.0963,0.0955,0.0947,0.0953,0.0938,0.0997,0.1016,0.1067,0.1049,0.1147,0.1176,0.1318,0.1374,0.1367,0.1359,0.1393,0.1465,0.1473,0.148,0.1448,0.1452,0.1394,0.1393,0.1392,0.1391,0,0.0911,0.0922,0.0924,0.0922,0.093,0.091,0.0954,0.1004,0.1045,0.1075,0.1194,0.1241,0.1287,0.1362,0.1403,0.1532,0.1509,0.1488,0.1436,0.1509,0.1469,0.147,0.141,0.1406,0.1403,0.14,0,0,0.0845,0.0899,0.0888,0.0911,0.0907,0.0911,0.0982,0.1034,0.1107,0.1145,0.1238,0.1364,0.1401,0.1433,0.1544,0.1593,0.1682,0.1599,0.1594,0.1598,0.1696,0.1618,0.1609,0.1719,0.1719,0.172,0.1662,0,0.0802,0.0802,0.0839,0.0841,0.0838,0.0895,0.0968,0.1035,0.1101,0.1192,0.13,0.1401,0.1442,0.153,0.1583,0.1662,0.1687,0.1697,0.1595,0.1589,0.1536,0.1608,0.1721,0.1662,0.1662,0.1661,0.1661,0,0.0731,0.0752,0.0758,0.0842,0.0851,0.0869,0.0982,0.1064,0.12,0.1269,0.1362,0.1424,0.1569,0.1565,0.1654,0.1681,0.1687,0.1712,0.1709,0.1541,0.151,0.1557,0.166,0.166,0.166,0.166,0.166,0,0.0657,0.0687,0.0713,0.0724,0.081,0.0877,0.0945,0.1073,0.1171,0.1352,0.137,0.151,0.1587,0.1616,0.1658,0.168,0.17,0.1703,0.1613,0.1606,0.1598,0.1586,0.1698,0.1698,0.1698,0.1699,0.1699,0,0.0575,0.0586,0.0696,0.0706,0.0767,0.087,0.0974,0.1081,0.122,0.1305,0.1432,0.1492,0.1609,0.1628,0.165,0.1623,0.1663,0.1609,0.1589,0.1692,0.1692,0.1599,0.1588,0.1696,0.1697,0.1697,0.1698,0,0.0482,0.0541,0.0577,0.0691,0.0739,0.08,0.0962,0.1034,0.119,0.13,0.1355,0.1482,0.1539,0.1582,0.1638,0.1595,0.1589,0.1559,0.1648,0.1636,0.149,0.1491,0.144,0.1437,0.1434,0.1432,0.143,0,0.0442,0.0451,0.056,0.06,0.0659,0.0773,0.0845,0.1014,0.1097,0.1273,0.1304,0.1398,0.1469,0.1451,0.1528,0.1518,0.1514,0.1476,0.1503,0.1479,0.1465,0.147,0.1475,0.1426,0.1425,0.1424,0.1423,0,0.036,0.0404,0.0449,0.0516,0.059,0.0676,0.0807,0.0842,0.1046,0.1148,0.1244,0.1289,0.1342,0.1402,0.141,0.1404,0.1492,0.1448,0.1454,0.1479,0.1461,0.1451,0.1459,0.1414,0.1415,0.1416,0.1417,0,0.0313,0.0317,0.0381,0.0444,0.0517,0.0585,0.0659,0.0774,0.0867,0.1074,0.1094,0.1212,0.1331,0.1339,0.134,0.1341,0.1332,0.1293,0.1307,0.1318,0.1311,0.1273,0.1143,0,0,0,0,0,0.0275,0.0287,0.0316,0.0385,0.0445,0.05,0.0638,0.0723,0.0881,0.092,0.1023,0.1082,0.1143,0.12,0.1179,0.1262,0.1311,0.1229,0.1267,0.1362,0.1373,0.1382,0,0,0,0,0,0,0.025,0.0273,0.0286,0.0317,0.0364,0.0428,0.0513,0.0618,0.0677,0.0841,0.0884,0.1005,0.1075,0.1138,0.1152,0.1167,0.1167,0.1306,0.1303,0.1356,0.1366,0.1375,0.1387,0,0,0,0,0]},{"header":{"parameterUnit":"m.s-1","parameterCategory":2,"la1":30.2991,"la2":30.254,"lo1":-89.0895,"lo2":-89.0444,"dy":0.0017,"dx":0.0017,"nx":28,"ny":28,"refTime":"2024-06-12T09:00:00:Z","depth":"4","parameterNumber":3,"parameterNumberName":"V-component_of_CURRENTS"},"data":[0,0,0,0,0,0,0,0,0,0,0,0,0,0,0,0,0,0,0,0,0,0,0,0,0,0,0,0,0,0,0,0,0,0,0,0,0,0,0,0,0,0,0,0,0,0,0,0,0,0,0,0,0,0,0,0,0,0,0.0186,0.0187,0,0.0254,0.0254,0.0254,0.0286,0.0287,0.0287,0.0288,0.0309,0.0309,0.0309,0,0,0,0,0,0,0,0,0,0,0,0,0,0.011,0.011,0.0186,0.0187,0.0188,0.0254,0.0254,0.0254,0.0286,0.0287,0.0287,0.0288,0.0309,0.0309,0.0309,0,0,0,0,0,0,0,0,0,0,0,0,0,0.015,0.011,0.0185,0.0217,0.0221,0.0254,0.0254,0.0254,0.0286,0.0287,0.0288,0.0288,0.0309,0.0309,0.0309,0.0293,0,0,0.0309,0.0309,0,0,0,0,0,0,0,0,0.0148,0.0152,0.0211,0.0215,0.022,0.0268,0.0236,0.0267,0.0286,0.0254,0.0288,0.0289,0.0295,0.0296,0.0298,0.0294,0.0295,0.0309,0.0309,0.0309,0.0309,0,0,0,0,0,0,0,0.0145,0.015,0.0206,0.0213,0.0218,0.0238,0.0243,0.0241,0.0263,0.0257,0.0261,0.0279,0.0296,0.0298,0.0299,0.0295,0.0309,0.0309,0.031,0.031,0.0294,0.0294,0,0,0,0,0,0,0.0147,0.0147,0.0204,0.0209,0.0192,0.0238,0.0245,0.0246,0.0264,0.027,0.0278,0.028,0.0298,0.0299,0.03,0.0298,0.0309,0.031,0.031,0.0294,0.0294,0.0293,0,0,0,0,0,0,0.0145,0.0151,0.0201,0.0186,0.0194,0.0239,0.0241,0.0247,0.0263,0.0282,0.0286,0.029,0.0298,0.03,0.0319,0.0299,0.031,0.031,0.0295,0.0294,0.0294,0.0285,0,0,0,0,0,0,0.0142,0.0149,0.0149,0.0185,0.0195,0.023,0.0241,0.0248,0.0276,0.0279,0.0293,0.0295,0.0299,0.0319,0.0319,0.0299,0.031,0.0296,0.0295,0.0294,0.0285,0.0284,0.0282,0,0,0,0,0,0.0139,0.0141,0.0148,0.0156,0.0193,0.0232,0.0238,0.0269,0.0275,0.0284,0.03,0.0296,0.0312,0.032,0.0319,0.0299,0.0296,0.0295,0.0294,0.0286,0.0284,0.0282,0,0,0,0,0,0,0.0108,0.0146,0.0154,0.0167,0.0201,0.024,0.0251,0.0272,0.029,0.0294,0.0303,0.0306,0.0309,0.0309,0.0316,0.0291,0.0297,0.0296,0.0291,0.0289,0.0288,0.0285,0.031,0,0,0,0,0,0.0101,0.0111,0.0152,0.0163,0.0175,0.0211,0.0229,0.0256,0.0282,0.0291,0.0301,0.0304,0.0301,0.0303,0.0303,0.0297,0.0266,0.028,0.0278,0.0277,0.0274,0.0203,0.0194,0.029,0.029,0.029,0,0,0.0095,0.0116,0.0123,0.0158,0.0178,0.0209,0.0222,0.0256,0.0284,0.0288,0.0312,0.0303,0.03,0.0294,0.0293,0.0295,0.0234,0.0275,0.0274,0.0272,0.0201,0.0191,0.0183,0.0289,0.0289,0.029,0,0,0.0101,0.0101,0.0119,0.0143,0.0187,0.021,0.0222,0.0263,0.0278,0.031,0.0303,0.0288,0.0305,0.0282,0.0276,0.0264,0.0229,0.0258,0.0245,0.0177,0.0168,0.016,0.0109,0.0097,0.0254,0.0254,0.0254,0,0.0102,0.0124,0.0132,0.0157,0.0188,0.0211,0.0249,0.0262,0.0306,0.0304,0.0324,0.0296,0.0296,0.0257,0.0257,0.0258,0.022,0.0255,0.0173,0.0164,0.0156,0.0106,0.0092,0.0254,0.0254,0.0254,0.0254,0,0.0128,0.0147,0.0157,0.0195,0.022,0.0256,0.0285,0.0297,0.0318,0.0323,0.0302,0.0291,0.0269,0.0256,0.0263,0.0191,0.0184,0.018,0.0176,0.0145,0.0096,0.0081,0.0253,0.0253,0.0253,0.0254,0,0,0.0153,0.0175,0.0185,0.021,0.025,0.0282,0.03,0.0323,0.0324,0.0325,0.0311,0.0285,0.025,0.0239,0.0212,0.0155,0.0071,0.0146,0.0143,0.0093,-0.0077,-0.004,-0.0052,0.0046,0.0043,0.0041,-0.0088,0,0.0189,0.0235,0.0243,0.0299,0.0329,0.0341,0.0361,0.037,0.0365,0.0344,0.029,0.0269,0.025,0.0234,0.0166,0.0098,0.0033,0.0107,-0.0037,-0.0041,-0.0008,-0.0068,0.0033,-0.0099,-0.0102,-0.0105,-0.0106,0,0.0233,0.0259,0.0313,0.0354,0.0369,0.0405,0.0426,0.0447,0.0396,0.0383,0.0314,0.0268,0.0177,0.0177,0.0015,0.0061,-0.0009,-0.0063,-0.007,-0.0042,-0.0031,-0.0063,-0.0132,-0.013,-0.0128,-0.0127,-0.0125,0,0.0265,0.0318,0.0364,0.0381,0.0422,0.0449,0.0477,0.0455,0.046,0.0394,0.0368,0.0247,0.0202,0.0077,-0.0033,-0.0018,-0.0206,-0.0201,-0.0241,-0.0239,-0.0228,-0.0218,-0.0325,-0.0325,-0.0324,-0.0324,-0.0323,0,0.0306,0.0345,0.0385,0.0411,0.0469,0.0491,0.0528,0.0522,0.0496,0.0476,0.0385,0.0329,0.0175,0.0053,-0.0054,-0.0193,-0.0233,-0.0259,-0.0279,-0.0226,-0.0215,-0.0238,-0.0226,-0.0329,-0.0328,-0.0327,-0.0326,0,0.0322,0.0348,0.0403,0.0458,0.0484,0.0527,0.0579,0.0584,0.0562,0.0528,0.0507,0.0377,0.0223,0.0065,-0.013,-0.0201,-0.0342,-0.0378,-0.0308,-0.0319,-0.0325,-0.0312,-0.0449,-0.0448,-0.0448,-0.0448,-0.0448,0,0.0324,0.0355,0.0433,0.0473,0.0505,0.0569,0.0603,0.0615,0.0614,0.0551,0.0525,0.0383,0.0279,0.0021,-0.0133,-0.035,-0.0362,-0.043,-0.0385,-0.0336,-0.0343,-0.033,-0.0317,-0.0448,-0.0448,-0.0448,-0.0448,0,0.0326,0.0359,0.0405,0.0482,0.0539,0.0594,0.0645,0.0647,0.0644,0.0622,0.0528,0.0393,0.0224,0.0029,-0.0131,-0.0284,-0.0388,-0.0431,-0.0431,-0.0389,-0.0338,-0.0341,-0.0329,-0.0448,-0.0448,-0.0448,-0.0448,0,0.0329,0.0358,0.042,0.0492,0.0558,0.06,0.0628,0.0635,0.0637,0.0581,0.0547,0.0369,0.0274,0.0062,-0.0096,-0.0234,-0.0259,-0.0286,-0.0294,-0.0296,-0.02,-0.011,-0.0185,0,0,0,0,0,0.0326,0.0362,0.0424,0.0501,0.0563,0.0599,0.0644,0.0661,0.0656,0.06,0.0582,0.0428,0.0203,0.0094,-0.0039,-0.0101,-0.0289,-0.0259,-0.0326,-0.0448,-0.0448,-0.0356,0,0,0,0,0,0,0.0324,0.0379,0.0414,0.0486,0.0542,0.0598,0.0624,0.0625,0.0599,0.0581,0.0456,0.0417,0.0188,0.0279,-0.0036,-0.0079,-0.0133,-0.0361,-0.0363,-0.0448,-0.0448,-0.0448,-0.0353,0,0,0,0,0]}]]